Погода в Икряном

Россия / Астраханская область     46°05′29″N   47°43′40″E
темп.,
°C
ветер,
м/с
пор.,
м/с
влажн.,
%
обл.,
%
осадки,
мм/ч
давл.,
гПа
погр.,
м
18 апреля, вс
вс1801:00+15с4661100 0.0 1020176
04:00+13ссз6780100 0.5 1021316
07:00+13ссв4782100 0.4 1019259
10:00+15всв4569100 0.4 1019424
13:00+16св2261100 0.0 1018516
16:00+16ююв0158100 0.0 1017655
19:00+17в11567 0.0 1017164
22:00+15юз2366100 0.0 101879
19 апреля, пн
пн1901:00+14зюз337390 0.0 101747
04:00+14зсз117426 0.0 101615
07:00+14з0175100 0.0 101623
10:00+16зюз226696 0.0 1017468
13:00+17зюз3460100 0.0 1017741
16:00+16зюз4470100 0.1 1016350
19:00+16ссз1169100 0.0 1015110
22:00+15ююз3480100 0.1 1016107
20 апреля, вт
вт2001:00+14ююв2293100 2.2 101577
04:00+14в2393100 3.2 101597
07:00+14вюв478895 0.0 1015238
10:00+17вюв7865100 0.0 1015521
13:00+19вюв101250100 0.0 1013710
16:00+18вюв101350100 0.0 1013629
19:00+16в111764100 0.0 1012526
22:00+15в112165100 0.0 1012535
21 апреля, ср
ср2101:00+15вюв122062100 0.0 1013510
04:00+14вюв101763100 0.0 1013401
07:00+14вюв51073100 0.5 1016408
10:00+13юв6888100 4.9 1018547
13:00+13вюв4580100 0.3 1019505
16:00+14в4475100 0.3 1020494
19:00+14всв557699 0.1 1021382
22:00+12св5782100 0.1 1022297
22 апреля, чт
чт2201:00+12ссв6878100 0.1 1021265
04:00+12ссв6972100 0.7 1020280
07:00+11св81085100 4.5 1020321
10:00+12всв91272100 4.5 1021584
13:00+13всв8963100 0.0 1021801
16:00+12св6864100 0.0 1021675
19:00+11с81075100 0.6 1022437
22:00+10ссв7107161 0.8 1022338